Location: Sluknov
(51.0170°N, 14.4670°E)
Time: 11:03:01
(UTC+01:00)

ISS - Pass Details

Date: 19 February 2026
Orbit: 416 x 426 km, 51.6° (Epoch: 10 March)

Event Time Altitude Azimuth Distance (km) Brightness Sun altitude
Exits shadow 05:42:41 26° 247° (WSW) 868 -2.7 -14.0°
Maximum altitude 05:44:27 78° 165° (SSE) 431 -3.7 -13.7°
Drops below altitude 10° 05:47:48 10° 79° (ENE) 1,494 0.4 -13.2°
Sets 05:49:54 0° 78° (ENE) 2,358 1.7 -12.8°
